Regional Weather Roundup
Issued by NWS

Home | Current Version | Previous Version | Graphics & Text | Print | Product List | Glossary On
Versions: 1 2 3 4 5 6 7 8 9 10 11 12 13 14 15 16 17 18 19 20 21 22 23 24 25 26 27 28 29 30 31 32 33 34 35 36 37 38 39 40 41 42 43 44 45 46 47 48 49 50
000
ASUS43 KIND 250259
RWRIN

WEATHER ROUNDUP FOR INDIANA
NATIONAL WEATHER SERVICE INDIANAPOLIS IN
1100 PM EDT SAT JUN 24 2017

NOTE: "FAIR" INDICATES FEW OR NO CLOUDS BELOW 12,000 FEET WITH NO
SIGNIFICANT WEATHER AND/OR OBSTRUCTIONS TO VISIBILITY.

* - STATION DOES NOT REPORT WEATHER SUCH AS PRECIPITATION OR FOG.

+ - STATION NOT QUALITY CONTROLLED BY THE NATIONAL WEATHER SERVICE.
    USE DATA WITH CAUTION...ESPECIALLY DEWPOINT AND RELATIVE
    HUMIDITY OBSERVATIONS.

INZ001>003-010>013-019-020-250400-
NORTHWEST INDIANA

CITY           SKY/WX    TMP DP  RH WIND       PRES   REMARKS
GARY /AIRPORT/ CLOUDY    63  48  59 CALM      30.07R
KNOX *+        PTCLDY    61  34  36 W5        30.07R
MICHIGAN CITY+ MOCLDY    63  48  59 CALM      30.07R
MONTICELLO +   CLEAR     61  48  62 W6        30.09R

$$

LMZ046-743>745-250400-
SOUTHERN LAKE MICHIGAN

STATION/POSITION TIME  TEMP    WIND        PRES    WAVE
                       AIR SEA DIR/SP/G            HT
                 (UTC) (F)     (DEG/KT/KT) (MB)    (FT)
BURNS HARBOR     0240   68     290/  7/  9 1018.3R
MICHIGAN CITY    0230   67     290/ 13/ 14   N/A
5NW MICH CITY    0250   67 67  310/  8/ 12   N/A     3

$$

INZ004-005-014>016-021>024-250400-
NORTH CENTRAL INDIANA

CITY           SKY/WX    TMP DP  RH WIND       PRES   REMARKS
GOSHEN         MOCLDY    61  48  62 W8        30.06R
SOUTH BEND     CLEAR     60  47  61 W6        30.07R

$$

INZ006>009-017-018-025>027-250400-
NORTHEAST INDIANA

CITY           SKY/WX    TMP DP  RH WIND       PRES   REMARKS
FORT WAYNE     PTCLDY    64  51  62 W6        30.07R
KENDALLVILLE + PTCLDY    62  51  67 CALM      30.05R

$$

INZ028-029-035-036-043>045-051>053-250400-
WEST CENTRAL INDIANA

CITY           SKY/WX    TMP DP  RH WIND       PRES   REMARKS
LAFAYETTE      CLEAR     59  51  75 CALM      30.10R
TERRE HAUTE    CLEAR     63  52  67 W3        30.13R

$$

INZ030>032-037>040-046>048-054>057-064-065-250400-
CENTRAL INDIANA

CITY           SKY/WX    TMP DP  RH WIND       PRES   REMARKS
GREENWOOD *+   PTCLDY    65  49  58 W6        30.13R
INDIANAPOLIS   PTCLDY    64  50  60 W6        30.11R
-EAGLE CREEK   CLEAR     65  51  60 W5        30.11R
KOKOMO +       CLEAR     62  49  62 W8        30.11R
MT COMFORT *+  PTCLDY    63  52  67 W8        30.11R
SHELBYVILLE    CLEAR     66  47  50 W6        30.11R

$$

INZ033-034-041-042-049-050-058-059-250400-
EAST CENTRAL INDIANA

CITY           SKY/WX    TMP DP  RH WIND       PRES   REMARKS
MUNCIE         PTCLDY    65  50  58 W7        30.10R
RICHMOND +     CLEAR     61  48  63 NW6       30.11R

$$

INZ060-061-067>069-081>083-085>088-250400-
SOUTHWEST INDIANA

CITY           SKY/WX    TMP DP  RH WIND       PRES   REMARKS
EVANSVILLE     CLOUDY    67  52  58 W5        30.16R
HUNTINGBURG *+ MOCLDY    64  56  75 W3        30.15R

$$

INZ062-063-066-070>080-084-089>092-250400-
SOUTH CENTRAL AND SOUTHEAST INDIANA

CITY           SKY/WX    TMP DP  RH WIND       PRES   REMARKS
BLOOMINGTON    PTCLDY    62  52  69 W5        30.13R
MADISON *+     CLOUDY    64  54  68 CALM      30.14R
SEYMOUR +      CLEAR     64  55  72 CALM      30.12R

$$





USA.gov is the U.S. government's official web portal to all federal, state and local government web resources and services.